sat.trackr.live / text

‹ back to catalog

STARLINK-30250

NORAD 57527 · 2023-115G

PAYLOAD ACTIVE UNKNOWN

§ Identity

Operator
Country
US
Launch date
2023-08-08
Launch site
AFWTR
Launch vehicle
Mass (kg)
RCS (m²)

Purposes: comms

External: N2YO · Heavens-Above · Gunter

§ Orbital elements

Epoch: 2026-09-20T21:39:41.994432Z

Period
94.22 min
Inclination
42.9969°
Eccentricity
0.0002184
Mean motion
15.28312974 rev/d
Perigee alt
479.4 km
Apogee alt
482.4 km
Semi-major
6,859.0 km
B*
9.6062e-4
RAAN
339.3735°
Arg perigee
334.6750°
Mean anomaly
25.3994°
Rev number
17,310

§ Raw data

STARLINK-302501 57527U 23115G   26263.90256938  .00026868  00000+0  96062-3 0  99942 57527  42.9969 339.3735 0002184 334.6750  25.3994 15.28312974173109

JSON: /api/v1/satellites/57527 · /tle

For live sub-satellite position, see the globe view (requires WebGL).

§ Visibility from observer

Set your observer location to see the next 7 days of passes ≥ 10°. The values pass through the URL so the page stays shareable.

No JS? Fill the form by hand. The geolocation button needs JavaScript.